User: anonymous   Login
Location: Wallasey
(53.4265°N, 3.0662°W)
Time: 17:19:48
(UTC+01:00)
Language:

XW-2B - Orbit

View from above orbital plane
View from above orbital plane
View from above satellite
View from above satellite

Ground track
Ground track

The orbit data is extracted from the following two-line orbital elements,

1 40911U 15049N   19291.40764182  .00000766  00000-0  43372-4 0  9990
2 40911  97.4717 291.8535 0015130 130.2748 339.6734 15.15911509225348
Epoch (UTC): 18 October 2019 09:47:00
Eccentricity: 0.0015130
inclination: 97.4717°
perigee height: 508 km
apogee height: 528 km
right ascension of ascending node: 291.8535°
argument of perigee: 130.2748°
revolutions per day: 15.15911509
mean anomaly at epoch: 339.6734°
orbit number at epoch: 22534

The dashed part of the orbit path shows where the satellite is in the earth's shadow,  

DLR